Find Starlink 33902

NORAD ID: 65920 Int'l Des: 2025-225 Owner: SPXS Country: US Constellation: starlink operational
LEOCIRCULAR

Live-Position

3D-Globus wird geladen...

Über Starlink 33902

Beschreibung wird geladen...

Nächste Überflüge

Passes for default location (London). Set your location on the main map for personalized predictions.

Höhenverlauf

Loading altitude history...

Zweizeiliger Elementsatz

1 65920U 25225L 26105.39213986 .00006699 00000-0 23812-3 0 9992
2 65920 53.1588 355.4690 0000904 101.0949 259.0154 15.30197256 30023
Epoch: 15. Apr. 2026 • Age: 12 hours

Aktueller Status

Höhe 476.7 km
Geschwindigkeit 7.63 km/s
Subsatellitenpunkt 31.98°N, 13.34°W
Startdatum 8. Okt. 2025
Alter 0.5 years
Typ internet

Technische Details

Klassifizierung Payload
Masse 575.00 kg
Trockenmasse 530.00 kg
Gesamtmasse 575.00 kg
Länge 0.30 m
Durchmesser 4.10 m
Spannweite 29.00 m
Form Box + pan
Hersteller SPXS
Bus-Typ Starlink V2MO
Phasenstatus In Orbit
Besitzer/Staat SPXS/US

Most Searched